Total_Precipitation_Accumulation
0.72 0.73 0.73 0.62 0.50 0.47 0.47 0.45 0.45 0.49 0.55 0.56 0.59 0.65 0.65 0.67 0.69 0.71 0.76 0.82 0.89 0.99 1.07 1.20 1.41 1.59 1.64 1.64 1.69 1.76 1.81 1.66 1.40 1.25 1.03 1.01 1.16 1.17 1.16 1.09 1.17 1.22 1.00
0.69 0.64 0.60 0.53 0.45 0.44 0.42 0.38 0.40 0.45 0.47 0.49 0.54 0.58 0.58 0.64 0.66 0.66 0.66 0.68 0.77 0.85 0.86 0.88 0.99 1.21 1.37 1.50 1.58 1.61 1.68 1.67 1.52 1.48 1.37 1.13 1.09 1.16 1.29 1.36 1.28 1.24 1.20
0.76 0.64 0.59 0.55 0.51 0.48 0.43 0.41 0.41 0.48 0.59 0.62 0.61 0.64 0.62 0.64 0.64 0.65 0.68 0.70 0.72 0.77 0.80 0.82 0.89 0.98 1.14 1.23 1.34 1.45 1.53 1.66 1.65 1.48 1.49 1.41 1.23 1.20 1.26 1.35 1.40 1.49 1.37
0.96 0.81 0.71 0.63 0.56 0.50 0.44 0.43 0.42 0.45 0.51 0.54 0.63 0.71 0.79 0.83 0.82 0.78 0.77 0.75 0.70 0.72 0.79 0.86 0.88 0.88 1.00 1.21 1.34 1.42 1.45 1.57 1.69 1.64 1.56 1.52 1.38 1.30 1.30 1.33 1.46 1.56 1.57
0.97 0.84 0.70 0.58 0.48 0.45 0.48 0.50 0.46 0.42 0.44 0.45 0.53 0.62 0.72 0.81 0.86 0.86 0.72 0.61 0.62 0.67 0.68 0.69 0.77 0.84 0.87 1.02 1.19 1.42 1.45 1.56 1.64 1.72 1.64 1.48 1.37 1.30 1.25 1.25 1.34 1.54 1.59
0.79 0.75 0.59 0.53 0.47 0.42 0.43 0.49 0.50 0.40 0.38 0.40 0.44 0.42 0.45 0.50 0.66 0.66 0.55 0.45 0.50 0.60 0.68 0.70 0.70 0.71 0.74 0.78 0.82 1.07 1.26 1.38 1.49 1.52 1.58 1.47 1.35 1.29 1.36 1.36 1.31 1.35 1.46
0.50 0.50 0.40 0.38 0.46 0.46 0.46 0.45 0.39 0.32 0.34 0.36 0.32 0.28 0.30 0.34 0.39 0.38 0.44 0.45 0.48 0.53 0.61 0.70 0.75 0.73 0.78 0.88 0.84 0.87 0.97 1.03 1.16 1.29 1.34 1.31 1.29 1.25 1.34 1.39 1.35 1.28 1.19
0.24 0.22 0.17 0.24 0.35 0.36 0.32 0.29 0.25 0.24 0.30 0.37 0.32 0.30 0.33 0.30 0.32 0.37 0.41 0.43 0.56 0.62 0.61 0.62 0.73 0.79 0.85 1.01 1.00 1.07 1.00 0.90 0.88 0.94 1.09 1.15 1.11 1.21 1.30 1.47 1.54 1.40 1.30
0.06 0.06 0.07 0.09 0.10 0.10 0.09 0.09 0.13 0.17 0.21 0.20 0.24 0.39 0.39 0.36 0.43 0.41 0.35 0.42 0.55 0.62 0.58 0.62 0.73 0.83 0.97 1.08 1.13 1.16 1.05 0.95 0.98 1.06 1.14 1.21 1.23 1.30 1.36 1.43 1.48 1.47 1.39
0.05 0.05 0.05 0.05 0.06 0.06 0.05 0.05 0.06 0.09 0.12 0.13 0.17 0.30 0.37 0.38 0.38 0.29 0.29 0.41 0.53 0.61 0.63 0.64 0.85 0.86 0.94 1.00 1.06 1.18 1.20 1.06 0.99 1.01 1.06 1.09 1.08 1.17 1.36 1.38 1.48 1.56 1.43
0.05 0.05 0.04 0.04 0.06 0.09 0.10 0.08 0.06 0.05 0.06 0.08 0.13 0.16 0.17 0.18 0.18 0.19 0.26 0.32 0.39 0.51 0.59 0.63 0.61 0.73 0.75 0.85 0.98 1.05 1.26 1.15 1.08 1.08 1.06 0.97 0.93 0.99 1.11 1.29 1.43 1.51 1.44
0.06 0.05 0.04 0.05 0.05 0.07 0.13 0.12 0.10 0.09 0.07 0.06 0.09 0.13 0.11 0.10 0.10 0.12 0.16 0.19 0.26 0.33 0.41 0.53 0.53 0.62 0.67 0.74 0.75 0.93 1.11 1.08 1.01 1.08 1.09 1.02 0.93 0.91 0.94 1.01 1.18 1.25 1.23
0.07 0.06 0.06 0.06 0.06 0.06 0.08 0.10 0.11 0.09 0.08 0.08 0.09 0.11 0.12 0.13 0.12 0.12 0.14 0.17 0.21 0.24 0.26 0.42 0.50 0.57 0.56 0.56 0.68 0.87 0.93 0.97 1.09 1.06 1.08 1.02 0.93 0.90 0.83 0.87 0.98 1.06 1.04
0.10 0.08 0.07 0.08 0.08 0.06 0.06 0.08 0.10 0.11 0.10 0.11 0.11 0.14 0.16 0.17 0.13 0.12 0.16 0.20 0.23 0.24 0.26 0.39 0.51 0.57 0.56 0.57 0.64 0.77 0.82 0.94 1.09 1.02 0.98 0.93 0.86 0.87 0.84 0.83 0.87 0.93 0.99
0.13 0.13 0.11 0.10 0.09 0.09 0.09 0.08 0.09 0.11 0.13 0.13 0.15 0.18 0.15 0.14 0.13 0.16 0.19 0.22 0.25 0.26 0.35 0.51 0.64 0.66 0.66 0.62 0.66 0.77 0.75 0.72 0.82 0.82 0.84 0.85 0.83 0.83 0.79 0.73 0.76 0.80 0.84
0.13 0.13 0.11 0.12 0.14 0.14 0.13 0.11 0.10 0.10 0.14 0.14 0.14 0.15 0.15 0.14 0.15 0.18 0.22 0.25 0.27 0.36 0.53 0.70 0.81 0.89 0.89 0.81 0.77 0.76 0.70 0.68 0.68 0.71 0.79 0.80 0.77 0.80 0.79 0.73 0.74 0.76 0.78
0.10 0.10 0.09 0.08 0.08 0.11 0.12 0.11 0.11 0.10 0.11 0.13 0.13 0.14 0.15 0.16 0.18 0.24 0.29 0.32 0.37 0.59 0.81 0.85 0.88 0.92 0.94 0.88 0.77 0.69 0.59 0.53 0.56 0.62 0.65 0.67 0.70 0.71 0.75 0.75 0.73 0.71 0.68
0.09 0.11 0.11 0.09 0.08 0.08 0.09 0.10 0.12 0.14 0.14 0.14 0.13 0.14 0.15 0.16 0.21 0.31 0.42 0.52 0.56 0.71 0.84 0.87 0.94 0.93 0.89 0.78 0.64 0.55 0.46 0.44 0.47 0.49 0.49 0.47 0.53 0.59 0.64 0.68 0.70 0.69 0.64
0.09 0.10 0.10 0.11 0.10 0.10 0.09 0.09 0.09 0.11 0.13 0.14 0.14 0.13 0.12 0.13 0.15 0.21 0.28 0.33 0.35 0.42 0.50 0.56 0.60 0.61 0.56 0.50 0.44 0.41 0.37 0.36 0.38 0.40 0.42 0.43 0.47 0.50 0.51 0.56 0.63 0.69 0.69
0.09 0.11 0.11 0.12 0.13 0.12 0.11 0.10 0.09 0.09 0.09 0.10 0.10 0.12 0.13 0.14 0.16 0.16 0.17 0.19 0.21 0.23 0.26 0.27 0.29 0.29 0.29 0.30 0.32 0.34 0.36 0.37 0.39 0.41 0.44 0.44 0.47 0.51 0.49 0.49 0.55 0.60 0.63
0.08 0.10 0.12 0.13 0.13 0.14 0.13 0.13 0.13 0.13 0.12 0.12 0.12 0.14 0.16 0.17 0.18 0.20 0.21 0.22 0.22 0.22 0.23 0.24 0.25 0.25 0.26 0.29 0.34 0.37 0.39 0.40 0.39 0.42 0.45 0.44 0.45 0.50 0.51 0.54 0.56 0.60 0.62
0.07 0.08 0.10 0.11 0.12 0.13 0.11 0.11 0.12 0.14 0.15 0.15 0.15 0.15 0.18 0.21 0.24 0.25 0.25 0.27 0.28 0.28 0.26 0.27 0.28 0.29 0.31 0.33 0.38 0.43 0.44 0.44 0.44 0.44 0.46 0.48 0.49 0.51 0.51 0.53 0.56 0.61 0.65
0.09 0.09 0.10 0.11 0.12 0.14 0.13 0.11 0.11 0.14 0.17 0.19 0.18 0.17 0.19 0.21 0.24 0.26 0.25 0.27 0.30 0.29 0.26 0.26 0.28 0.29 0.30 0.31 0.36 0.42 0.46 0.49 0.51 0.52 0.54 0.55 0.56 0.57 0.59 0.58 0.56 0.58 0.63
0.11 0.12 0.11 0.11 0.13 0.14 0.15 0.14 0.15 0.16 0.18 0.19 0.17 0.17 0.19 0.20 0.21 0.23 0.25 0.26 0.27 0.27 0.27 0.27 0.28 0.29 0.31 0.34 0.37 0.40 0.43 0.48 0.54 0.60 0.64 0.64 0.62 0.62 0.65 0.66 0.63 0.63 0.70
0.10 0.13 0.13 0.13 0.14 0.16 0.17 0.17 0.18 0.18 0.19 0.20 0.21 0.21 0.22 0.23 0.24 0.26 0.28 0.29 0.29 0.30 0.29 0.29 0.30 0.31 0.34 0.36 0.39 0.42 0.48 0.52 0.53 0.57 0.62 0.66 0.64 0.64 0.67 0.67 0.68 0.71 0.75
0.11 0.14 0.17 0.16 0.16 0.17 0.18 0.18 0.19 0.22 0.22 0.22 0.22 0.24 0.26 0.27 0.27 0.29 0.32 0.34 0.36 0.36 0.35 0.36 0.36 0.34 0.34 0.35 0.37 0.41 0.47 0.49 0.50 0.54 0.58 0.64 0.69 0.69 0.71 0.73 0.71 0.69 0.72